This is the latest recevied weather packets stored in our database for station/object W2SRH. If no packets are shown the sender has not sent any weather packets the latest 10 day(s).
| Time | Temp. | Humidity | Pressure | Rain* | Wind** | Luminosity | Snow |
|---|---|---|---|---|---|---|---|
| 1777997347 | 25.56° C | 38% | 1002.2 hPa | 0 mm | 1.34 m/s, 241° | - | - |
| 1777996744 | 25.56° C | 37% | 1002.4 hPa | 0 mm | 0.89 m/s, 220° | - | - |
| 1777996148 | 25° C | 39% | 1002.6 hPa | 0 mm | 1.79 m/s, 204° | - | - |
| 1777995546 | 25° C | 40% | 1002.5 hPa | 0 mm | 0.45 m/s, 210° | - | - |
| 1777994949 | 24.44° C | 41% | 1002.5 hPa | 0 mm | 0.45 m/s, 220° | - | - |
| 1777994345 | 24.44° C | 41% | 1002.5 hPa | 0 mm | 0.89 m/s, 217° | - | - |
| 1777993746 | 24.44° C | 41% | 1002.5 hPa | 0 mm | 0.45 m/s, 190° | - | - |
| 1777993145 | 24.44° C | 40% | 1002.6 hPa | 0 mm | 0.89 m/s, 191° | - | - |
| 1777992545 | 25° C | 39% | 1002.6 hPa | 0 mm | 0.89 m/s, 265° | - | - |
| 1777991945 | 23.89° C | 41% | 1002.6 hPa | 0 mm | 0.45 m/s, 180° | - | - |
| 1777990746 | 23.33° C | 42% | 1002.9 hPa | 0 mm | 0.89 m/s, 270° | - | - |
| 1777989544 | 21.67° C | 45% | 1003 hPa | 0 mm | 0.45 m/s, 239° | - | - |
| 1777988946 | 21.67° C | 45% | 1003.2 hPa | 0 mm | 1.34 m/s, 262° | - | - |
| 1777988344 | 21.67° C | 45% | 1003.2 hPa | 0 mm | 1.34 m/s, 227° | - | - |
| 1777987744 | 21.11° C | 46% | 1003.2 hPa | 0 mm | 0.89 m/s, 226° | - | - |
| 1777987144 | 20.56° C | 48% | 1003.2 hPa | 0 mm | 1.34 m/s, 289° | - | - |
| 1777986829 | 20° C | 49% | 1003.1 hPa | 0 mm | 1.34 m/s, 250° | - | - |
| 1777986544 | 20° C | 49% | 1003.1 hPa | 0 mm | 1.34 m/s, 250° | - | - |
| 1777985945 | 20° C | 50% | 1003.1 hPa | 0 mm | 0.89 m/s, 254° | - | - |
| 1777985345 | 19.44° C | 50% | 1003.1 hPa | 0 mm | 0.89 m/s, 252° | - | - |
| 1777984745 | 19.44° C | 51% | 1003 hPa | 0 mm | 1.34 m/s, 245° | - | - |
| 1777984145 | 18.89° C | 52% | 1002.9 hPa | 0 mm | 0.89 m/s, 247° | - | - |
| 1777983545 | 18.89° C | 53% | 1002.9 hPa | 0 mm | 0.89 m/s, 210° | - | - |
| 1777982945 | 18.33° C | 53% | 1002.9 hPa | 0 mm | 0.89 m/s, 255° | - | - |
| 1777982344 | 18.33° C | 54% | 1002.8 hPa | 0 mm | 0.89 m/s, 301° | - | - |
* Rain latest hour (hover to see other rain measurements)
** Current wind speed in m/s (hover to see current wind gust speed)